Vertical_Velocity
2 1 3 -1 2 1 -2 2 -2 -1 -1 -2 2 -0 1 -1 1 1 1 1 0 1 6 3 2 -1 0 -4 -0 -1 2 -1 0
0 -2 -1 -2 -0 2 -2 0 -1 -1 0 1 1 0 -0 1 -0 -1 -0 1 5 3 -1 2 -2 -0 -1 2 2 -0 1 -0 -1
-1 -3 -0 0 0 1 -3 1 -3 0 1 0 -0 1 1 -0 -1 -2 1 1 1 4 2 6 0 2 5 2 2 -0 -0 -1 -2
3 2 0 -5 -1 2 1 -1 0 -3 -0 -0 1 1 -1 -1 1 0 2 0 2 -1 1 -1 3 -1 2 2 3 -1 -0 -0 1
1 0 1 2 1 0 -0 1 0 4 1 -1 3 1 0 1 -1 -1 -4 1 -1 -0 1 -1 -2 2 0 -0 -0 -0 0 -1 2
-2 0 1 1 -1 -1 -1 -2 -1 -0 1 1 1 0 -0 4 -5 -1 2 -1 -0 1 -0 0 2 -2 -1 -0 1 -1 -2 -1 -1
-1 -0 -0 -0 2 -0 1 -1 1 1 1 0 1 1 0 -1 -6 -1 -3 -2 -0 -1 -1 1 1 -1 0 -0 -2 -0 -1 1 1
-1 0 -1 -1 -1 -1 1 1 -1 -2 -1 1 1 1 0 -3 1 0 -1 -1 1 2 1 0 -0 0 -1 0 -1 0 1 -1 1
1 -0 -0 -1 -1 -2 -0 0 1 1 -1 1 1 0 1 -2 1 0 -1 -0 -3 2 -0 0 1 1 -1 -0 -0 2 -0 -0 0
-0 -1 -1 0 -1 -2 -2 -0 1 -1 0 0 -1 -0 0 -1 1 0 0 0 -0 -3 -2 -1 2 2 -1 -0 0 -0 -1 2 -1
0 -0 -0 -1 -0 -0 -1 -0 -0 -0 -0 -1 -0 -0 1 1 1 -0 -0 -0 -1 -0 -3 -2 2 5 -1 1 -0 1 -0 -0 -0
0 -1 -0 -0 -0 1 -0 0 -1 -0 0 0 1 1 1 0 -0 0 -1 0 0 -0 -2 -2 -0 -0 0 0 0 -1 -0 1 -0
1 1 0 0 1 1 -1 2 -1 1 0 -0 1 0 1 -0 -0 -0 2 -2 -1 0 0 -0 -0 1 -0 -0 -0 -0 1 0 0
1 2 1 1 0 0 0 1 2 1 0 0 0 1 0 -1 -1 0 0 1 0 0 1 -1 -1 -0 -1 1 -1 -0 1 -0 -0
-0 0 0 1 2 1 2 1 -1 -1 0 1 0 0 1 0 -1 -1 -0 0 2 0 -0 -1 -1 -1 1 1 -2 -1 -1 2 -1
-0 -1 -0 0 -1 1 -0 -0 -2 -0 3 -1 0 0 1 -1 -1 -0 -0 -0 0 -1 0 -0 -0 -1 -0 1 -2 -4 0 1 0
-1 -1 -1 -0 -1 -2 2 -0 -2 -1 2 -2 2 -1 -1 -0 1 0 -0 -1 -0 -1 -1 -1 -1 1 -0 -1 -1 -4 -1 4 -0
0 -0 -0 0 0 -0 -1 -0 0 0 1 -1 -2 -1 -1 -4 -0 1 -0 0 -1 0 -1 -1 -1 -1 0 -1 -2 -3 -1 1 3
1 0 -0 0 1 0 -1 -0 1 -0 0 -1 0 0 -1 1 -2 -1 0 -1 -1 -1 -0 -0 -1 -1 -1 -0 -1 -1 -0 1 3
2 1 1 1 0 0 0 -1 -1 -0 -2 2 3 -0 -0 -0 -2 0 1 0 0 1 0 -1 -1 -0 -1 -1 -1 -1 -1 -1 2
Height
3157 3158 3158 3158 3160 3161 3162 3162 3163 3164 3164 3166 3166 3167 3168 3167 3167 3168 3170 3170 3171 3172 3173 3174 3175 3177 3178 3178 3179 3180 3181 3181 3182
3156 3157 3157 3158 3158 3160 3161 3161 3162 3162 3163 3164 3165 3167 3167 3168 3169 3169 3170 3171 3171 3173 3174 3175 3176 3177 3178 3179 3180 3181 3181 3181 3182
3156 3155 3156 3156 3156 3157 3159 3160 3161 3161 3162 3163 3164 3166 3167 3168 3168 3170 3171 3171 3172 3173 3174 3175 3177 3177 3178 3179 3179 3180 3181 3181 3182
3153 3154 3155 3155 3155 3155 3157 3158 3158 3160 3161 3162 3164 3165 3166 3167 3168 3169 3170 3172 3173 3174 3175 3175 3176 3178 3178 3179 3179 3180 3180 3181 3181
3150 3150 3151 3152 3152 3153 3154 3156 3157 3158 3160 3161 3163 3165 3165 3167 3167 3168 3170 3171 3173 3174 3175 3176 3177 3177 3178 3179 3179 3180 3180 3180 3180
3146 3148 3149 3150 3150 3151 3153 3154 3156 3156 3158 3160 3162 3163 3164 3165 3164 3167 3169 3170 3172 3173 3174 3175 3176 3177 3178 3179 3179 3180 3180 3180 3180
3144 3145 3146 3147 3148 3149 3151 3152 3154 3155 3156 3158 3160 3161 3162 3163 3163 3167 3168 3169 3171 3172 3173 3174 3175 3175 3177 3177 3178 3179 3179 3180 3180
3143 3144 3144 3145 3146 3147 3149 3150 3152 3153 3154 3156 3158 3159 3160 3161 3163 3165 3166 3167 3169 3171 3172 3172 3173 3174 3175 3176 3177 3177 3178 3179 3179
3141 3141 3142 3143 3144 3144 3146 3148 3150 3151 3152 3154 3156 3157 3158 3159 3161 3163 3164 3166 3168 3168 3170 3171 3172 3173 3173 3174 3175 3176 3176 3177 3178
3138 3139 3140 3141 3142 3143 3143 3145 3147 3148 3150 3151 3153 3155 3156 3156 3158 3160 3161 3163 3165 3166 3168 3169 3170 3170 3171 3172 3173 3174 3174 3175 3176
3136 3136 3138 3139 3140 3140 3141 3142 3143 3145 3147 3148 3150 3151 3153 3154 3156 3157 3158 3160 3162 3164 3165 3167 3168 3168 3169 3170 3170 3171 3172 3173 3173
3133 3133 3134 3135 3136 3137 3138 3140 3141 3143 3144 3145 3147 3148 3149 3151 3152 3154 3155 3156 3158 3160 3162 3164 3166 3166 3167 3168 3168 3169 3170 3170 3171
3129 3131 3131 3133 3134 3134 3135 3137 3138 3139 3140 3142 3144 3145 3146 3147 3148 3149 3151 3152 3154 3156 3158 3160 3162 3164 3165 3165 3165 3166 3167 3168 3168
3126 3127 3128 3129 3130 3131 3132 3133 3134 3135 3137 3138 3139 3141 3142 3143 3144 3145 3147 3149 3150 3152 3154 3155 3158 3160 3163 3163 3162 3162 3163 3164 3165
3122 3123 3124 3125 3126 3127 3128 3129 3130 3131 3133 3134 3135 3137 3137 3138 3140 3142 3143 3144 3146 3147 3149 3151 3153 3155 3158 3159 3158 3160 3160 3162 3162
3117 3119 3119 3120 3121 3122 3123 3124 3125 3127 3129 3130 3131 3132 3133 3134 3135 3137 3138 3139 3141 3143 3144 3145 3148 3149 3152 3154 3155 3154 3157 3159 3160
3111 3112 3113 3114 3115 3116 3118 3119 3120 3122 3124 3124 3126 3126 3129 3130 3131 3132 3133 3134 3136 3137 3139 3140 3142 3144 3146 3149 3150 3150 3152 3155 3157
3104 3105 3106 3107 3108 3109 3111 3113 3114 3116 3117 3118 3119 3120 3122 3123 3125 3127 3128 3129 3130 3132 3133 3135 3137 3139 3141 3143 3145 3146 3148 3150 3152
3097 3099 3100 3101 3102 3103 3104 3106 3107 3108 3111 3112 3114 3115 3116 3117 3119 3120 3122 3123 3125 3127 3128 3129 3131 3133 3135 3137 3139 3141 3143 3145 3147
3089 3090 3092 3094 3095 3097 3098 3098 3100 3101 3102 3105 3107 3108 3109 3110 3112 3113 3115 3117 3118 3120 3122 3123 3125 3127 3129 3131 3133 3135 3138 3139 3141